Temp
64 63 63 63 63 63 63 63 63 63 63 63 63 63 63 63 63 73 78 87 83 81 84 83 84 86 88 85 82 79 63 59 66 68 71 81 78 82 85 79 82 82 75 77 79
63 63 63 63 63 63 63 63 62 62 63 63 63 63 63 63 61 69 85 83 82 82 84 83 84 84 78 81 80 73 62 67 75 76 75 79 80 80 78 77 77 76 79 79 79
63 63 62 62 63 63 62 62 62 62 61 62 63 63 63 62 67 81 85 83 82 82 87 89 91 86 78 80 80 77 68 75 77 80 80 79 79 83 75 71 76 73 73 77 77
63 62 62 63 63 62 62 62 62 61 61 62 63 63 63 59 65 81 83 81 82 84 85 85 87 79 75 75 80 73 78 79 79 81 80 77 80 78 78 77 83 80 78 77 76
62 62 61 61 62 62 62 62 62 62 61 62 63 64 62 64 73 85 83 83 82 86 87 85 82 79 74 78 80 76 77 79 81 81 80 81 78 77 79 82 84 81 79 77 77
62 62 62 62 62 62 62 61 61 62 61 62 63 64 61 62 83 83 84 80 84 84 83 85 84 86 77 77 77 82 78 78 79 79 80 78 78 79 79 83 82 78 77 78 77
62 63 62 62 62 62 61 61 61 61 62 63 64 66 62 72 84 80 82 80 81 84 82 85 87 82 78 74 83 79 72 75 77 77 75 78 73 73 79 82 79 79 77 78 79
62 62 61 61 61 61 60 60 60 62 63 64 65 60 63 80 78 82 77 82 83 82 83 86 88 81 76 78 80 74 71 62 73 75 75 75 61 73 79 79 76 78 79 80 79
61 61 61 61 60 60 59 59 61 64 65 65 57 58 65 81 75 83 83 83 81 79 79 97 85 77 76 70 66 67 59 64 70 76 75 72 64 75 79 78 76 77 78 79 78
61 60 60 60 60 59 59 59 61 63 66 69 73 60 70 73 80 83 79 85 79 79 81 78 72 68 65 64 57 62 61 66 66 73 74 68 68 74 76 78 76 77 78 78 78
60 60 60 60 59 59 55 61 66 64 63 67 69 71 75 81 82 82 85 83 77 75 64 68 67 62 69 70 75 71 65 66 70 77 72 69 69 72 75 77 75 75 76 77 79
60 60 59 59 59 57 55 62 62 65 58 72 73 73 77 78 74 77 82 77 71 66 64 64 60 71 75 75 72 69 65 66 72 77 73 70 70 73 74 76 78 77 77 78 79
59 59 58 58 58 57 57 62 69 64 57 67 71 72 74 77 72 74 80 74 70 65 63 60 68 76 73 71 70 62 63 66 68 71 73 69 66 67 72 74 77 79 81 80 79
59 59 57 56 60 55 63 65 66 65 53 62 65 74 77 79 71 84 81 78 68 69 66 64 72 75 67 69 70 60 72 75 74 65 59 69 55 64 67 69 72 77 78 79 79
59 58 56 55 53 55 70 66 67 68 45 71 67 81 73 74 71 75 82 78 70 70 67 67 70 68 66 73 74 69 75 73 74 59 58 62 56 62 62 66 69 75 78 80 80
58 58 56 55 53 57 62 61 65 54 48 68 74 71 68 66 71 77 77 80 77 70 66 69 73 74 74 77 75 75 68 65 60 58 51 59 59 59 60 68 74 75 77 80 81
57 56 55 61 57 60 61 64 52 46 68 68 65 68 63 61 67 71 68 64 63 57 53 65 67 71 74 65 70 66 59 49 49 49 50 51 56 62 69 72 75 78 78 79 82
55 54 54 58 56 59 62 59 43 61 62 70 69 66 65 66 64 65 64 62 62 61 54 56 57 68 73 72 68 62 61 51 47 45 53 50 55 65 73 77 78 81 79 80 79
54 52 52 58 61 60 60 47 51 57 68 69 66 62 58 67 66 64 62 62 67 65 60 52 57 69 73 75 74 61 58 60 52 45 50 54 61 70 71 72 74 76 78 77 79
52 50 53 63 64 61 56 47 54 64 71 67 58 63 56 61 64 62 62 69 68 70 65 59 56 65 70 71 69 67 68 58 52 47 44 53 53 58 63 68 70 71 73 73 78
51 51 64 63 62 59 49 49 60 70 72 65 61 61 62 62 64 59 65 69 73 69 67 59 58 63 66 61 65 63 58 54 55 51 48 47 54 59 60 65 67 70 70 70 73
49 50 66 67 56 48 49 56 62 66 69 70 66 67 65 66 62 62 65 72 77 70 67 64 57 54 62 67 69 64 61 58 54 52 50 52 55 64 62 70 70 66 69 70 75
48 48 63 66 49 50 55 62 66 66 66 66 68 71 70 65 61 66 69 81 77 74 69 67 55 52 60 61 64 63 61 54 54 52 49 52 55 67 64 69 70 67 70 69 72
50 47 55 58 53 52 52 58 60 72 70 71 71 70 64 64 64 66 68 77 77 77 72 70 53 57 55 61 60 60 66 60 59 53 52 54 57 62 64 67 70 69 72 71 73
48 48 52 48 51 52 53 58 61 62 69 69 68 69 66 60 63 64 68 69 75 71 67 69 60 56 59 62 68 65 64 67 62 61 60 61 57 61 64 68 71 70 75 74 74
46 48 50 49 51 52 50 54 60 64 63 64 64 71 69 62 68 66 64 62 66 67 65 62 59 56 60 69 70 67 68 65 66 66 63 60 57 64 64 65 69 71 74 74 75
56 52 51 48 50 50 51 57 62 64 66 71 71 67 66 73 74 73 72 70 71 70 64 63 59 56 53 63 64 60 65 63 63 64 63 60 63 62 61 66 69 69 72 73 76
MSLP
1016.90 1016.43 1016.03 1015.55 1015.05 1014.67 1014.35 1013.99 1013.51 1013.05 1012.56 1012.06 1011.66 1011.12 1010.39 1009.64 1008.27 1007.28 1006.57 1005.05 1005.09 1005.29 1005.79 1006.13 1006.79 1006.39 1005.75 1006.29 1006.43 1007.22 1008.78 1009.12 1008.66 1008.15 1007.83 1007.60 1007.75 1008.44 1008.33 1008.91 1009.43 1009.90 1010.85 1011.77 1013.08
1017.03 1016.60 1016.09 1015.65 1015.19 1014.71 1014.30 1013.91 1013.45 1012.95 1012.50 1012.04 1011.59 1011.06 1010.46 1009.91 1009.09 1007.15 1004.87 1004.69 1004.66 1005.43 1006.08 1006.21 1006.64 1006.60 1006.53 1006.48 1006.75 1007.16 1008.64 1008.34 1007.66 1007.47 1007.35 1007.39 1007.64 1008.08 1008.83 1009.46 1009.75 1010.50 1011.09 1012.22 1013.21
1017.00 1016.60 1016.16 1015.67 1015.21 1014.69 1014.15 1013.72 1013.35 1012.93 1012.42 1011.99 1011.53 1010.97 1010.38 1010.11 1008.97 1005.41 1004.33 1004.49 1004.85 1005.30 1005.23 1005.77 1005.77 1006.09 1006.75 1006.90 1007.03 1007.27 1007.96 1007.47 1007.31 1007.33 1007.09 1007.48 1007.54 1007.91 1008.81 1009.57 1009.61 1010.39 1011.58 1012.47 1013.25
1017.03 1016.62 1016.16 1015.57 1015.09 1014.65 1014.08 1013.49 1013.06 1012.77 1012.34 1011.78 1011.39 1010.84 1010.21 1009.98 1007.79 1004.52 1004.30 1004.49 1004.87 1005.35 1005.41 1005.41 1005.73 1006.08 1006.69 1007.10 1007.48 1007.77 1007.74 1007.77 1007.43 1007.66 1007.29 1007.45 1007.29 1007.77 1008.14 1008.45 1009.02 1009.94 1011.00 1012.30 1013.29
1017.04 1016.61 1016.13 1015.64 1015.09 1014.48 1013.84 1013.23 1012.74 1012.29 1012.03 1011.56 1011.16 1010.72 1010.07 1009.23 1006.54 1004.30 1004.60 1004.89 1005.11 1005.37 1005.45 1005.48 1005.51 1005.77 1006.39 1006.57 1007.78 1007.83 1008.07 1008.06 1007.67 1007.55 1007.55 1007.19 1007.21 1007.53 1008.05 1008.37 1009.32 1010.29 1011.45 1012.34 1012.95
1017.02 1016.59 1016.08 1015.45 1014.86 1014.11 1013.40 1012.73 1012.22 1011.87 1011.55 1011.22 1010.90 1010.69 1010.16 1008.27 1004.68 1004.30 1004.56 1004.88 1004.89 1005.00 1005.27 1005.22 1005.34 1005.42 1006.07 1006.77 1007.65 1007.65 1007.96 1008.18 1008.08 1007.91 1007.85 1007.58 1007.23 1007.30 1008.41 1008.68 1009.71 1010.71 1011.45 1012.22 1012.77
1017.07 1016.38 1015.71 1015.06 1014.35 1013.70 1012.97 1012.19 1011.73 1011.43 1011.03 1010.84 1010.68 1010.44 1009.59 1006.26 1004.76 1004.61 1004.69 1004.65 1004.51 1004.69 1004.91 1004.87 1004.97 1005.29 1005.97 1007.17 1007.65 1008.07 1008.69 1008.69 1008.17 1008.31 1008.05 1007.73 1007.96 1008.31 1008.65 1009.03 1009.72 1010.65 1011.57 1011.97 1012.33
1016.77 1016.17 1015.54 1014.76 1013.93 1013.13 1012.35 1011.75 1011.10 1010.67 1010.50 1010.45 1010.38 1010.17 1008.21 1005.01 1004.81 1004.64 1004.48 1004.19 1004.28 1004.59 1004.65 1004.57 1004.79 1005.47 1006.48 1007.01 1007.53 1008.14 1008.64 1008.86 1008.31 1008.33 1008.18 1007.86 1008.65 1008.90 1009.05 1009.27 1009.81 1010.16 1010.75 1011.45 1011.96
1016.56 1015.92 1015.23 1014.47 1013.65 1012.70 1011.68 1011.04 1010.41 1009.92 1010.10 1010.24 1010.25 1009.65 1007.11 1004.62 1004.69 1003.86 1003.92 1004.02 1003.91 1004.37 1004.47 1004.49 1004.91 1006.15 1007.12 1007.64 1008.34 1008.73 1008.76 1008.70 1008.29 1007.97 1008.03 1008.34 1008.92 1008.81 1008.95 1009.35 1009.96 1010.02 1010.20 1010.63 1010.98
1016.48 1015.79 1015.04 1014.22 1013.29 1012.23 1011.03 1010.25 1010.01 1010.11 1010.15 1010.06 1009.63 1009.35 1006.31 1004.95 1004.18 1003.77 1003.76 1003.85 1003.99 1004.15 1004.46 1004.83 1005.89 1006.93 1008.02 1008.26 1008.55 1008.58 1008.51 1008.10 1008.10 1007.88 1008.13 1008.44 1008.39 1008.49 1008.86 1009.41 1009.73 1009.90 1009.99 1010.15 1010.41
1016.37 1015.67 1014.94 1013.96 1013.04 1012.01 1010.73 1010.07 1010.47 1010.13 1009.73 1009.01 1008.14 1007.33 1005.77 1004.64 1003.76 1003.40 1003.48 1003.95 1004.37 1005.01 1005.43 1005.82 1006.60 1007.22 1007.68 1007.81 1007.39 1007.81 1007.96 1007.77 1007.67 1007.41 1007.73 1008.23 1008.41 1008.53 1008.49 1008.98 1009.37 1009.57 1009.78 1009.85 1009.92
1016.27 1015.57 1014.79 1013.72 1012.58 1011.84 1011.54 1011.32 1010.91 1011.14 1009.68 1007.47 1006.55 1006.09 1005.22 1004.91 1004.95 1003.63 1003.34 1004.21 1004.87 1005.66 1006.06 1006.66 1006.64 1006.28 1006.91 1007.19 1007.23 1007.33 1007.73 1007.36 1007.12 1007.06 1007.36 1007.83 1007.90 1007.81 1007.89 1007.75 1008.29 1008.76 1009.28 1009.33 1009.56
1016.24 1015.54 1014.72 1013.63 1012.33 1012.10 1012.11 1011.05 1010.35 1010.40 1009.91 1006.38 1005.49 1004.84 1004.42 1004.70 1004.44 1003.52 1003.42 1004.03 1004.93 1005.88 1006.27 1006.70 1006.20 1005.98 1006.42 1006.97 1007.35 1007.51 1007.66 1007.44 1007.42 1007.35 1007.39 1007.65 1007.89 1007.87 1007.76 1007.75 1007.85 1008.04 1008.42 1008.80 1009.16
1016.10 1015.54 1014.95 1013.82 1012.55 1012.72 1011.35 1010.26 1009.96 1009.77 1009.23 1006.23 1004.66 1003.35 1003.55 1003.62 1003.65 1002.84 1002.95 1003.62 1004.75 1005.41 1006.42 1006.43 1005.63 1005.75 1006.09 1006.40 1006.81 1007.32 1006.97 1007.14 1007.30 1008.21 1008.34 1008.15 1009.36 1008.08 1007.50 1007.43 1007.35 1007.21 1007.59 1008.06 1008.71
1015.93 1015.47 1015.16 1014.95 1014.43 1013.21 1010.69 1009.89 1009.54 1009.29 1008.48 1004.85 1003.61 1002.50 1002.69 1003.25 1003.17 1002.77 1002.71 1003.24 1004.43 1005.18 1005.95 1005.65 1005.41 1005.49 1005.67 1005.29 1006.03 1006.14 1006.56 1007.01 1007.29 1009.21 1009.31 1009.51 1009.88 1007.81 1007.63 1007.21 1007.10 1006.62 1006.75 1007.11 1007.55
1015.56 1015.19 1015.09 1014.80 1014.59 1011.77 1010.78 1010.14 1009.63 1009.79 1007.09 1004.08 1002.92 1002.69 1003.03 1002.99 1003.01 1002.72 1002.70 1002.99 1004.03 1005.12 1005.41 1005.31 1004.79 1004.89 1004.47 1004.43 1005.25 1005.52 1006.76 1007.80 1008.88 1009.82 1010.81 1009.81 1009.93 1008.48 1007.51 1005.89 1005.47 1005.98 1005.75 1006.43 1006.90
1015.04 1014.48 1014.86 1014.16 1012.33 1010.98 1010.83 1010.50 1010.63 1009.19 1006.10 1004.44 1003.32 1002.93 1003.09 1003.40 1003.40 1003.25 1003.45 1004.00 1004.76 1005.57 1006.14 1005.51 1004.89 1004.18 1003.81 1004.35 1004.80 1006.13 1007.70 1009.59 1010.78 1011.19 1010.72 1009.91 1009.94 1007.66 1005.70 1005.01 1004.56 1004.64 1004.79 1005.60 1006.19
1014.50 1013.61 1012.59 1011.97 1011.25 1011.37 1011.33 1011.17 1010.76 1008.20 1006.43 1004.58 1003.79 1003.58 1003.60 1003.63 1003.63 1003.76 1004.09 1004.65 1004.95 1005.41 1006.56 1006.11 1005.20 1004.19 1003.80 1004.05 1004.69 1005.95 1007.15 1008.67 1010.33 1011.44 1010.67 1009.93 1008.74 1006.29 1005.18 1004.42 1004.10 1004.19 1004.37 1005.21 1005.65
1014.02 1012.94 1012.45 1010.32 1010.74 1011.31 1011.65 1011.72 1009.88 1008.12 1006.43 1005.31 1003.97 1003.90 1003.95 1003.64 1003.66 1003.94 1004.32 1004.46 1004.41 1004.87 1005.79 1006.11 1005.26 1004.09 1003.56 1003.42 1004.15 1005.70 1006.79 1007.51 1009.43 1011.01 1010.96 1009.65 1007.97 1006.39 1005.70 1005.18 1004.75 1004.59 1004.56 1005.08 1005.04
1014.69 1013.75 1011.67 1009.87 1010.27 1010.74 1011.39 1011.23 1009.60 1007.79 1006.46 1005.54 1005.01 1004.46 1004.34 1003.81 1003.89 1003.99 1004.12 1003.21 1003.89 1004.05 1004.19 1005.39 1005.29 1004.16 1003.40 1003.24 1003.91 1004.49 1005.75 1007.64 1009.08 1010.71 1011.08 1009.86 1008.94 1008.02 1007.09 1006.70 1005.98 1005.67 1005.47 1005.47 1005.38
1014.69 1013.56 1010.18 1009.83 1010.47 1010.91 1011.63 1010.78 1009.10 1007.46 1006.47 1005.89 1005.26 1005.13 1004.43 1003.81 1003.63 1003.75 1003.37 1002.55 1002.68 1003.66 1004.10 1005.11 1005.50 1004.73 1003.89 1003.94 1003.88 1004.89 1005.78 1007.54 1008.79 1009.92 1010.59 1010.27 1009.31 1008.45 1008.31 1008.01 1007.99 1006.67 1006.27 1005.34 1005.19
1014.91 1013.65 1010.50 1010.29 1011.08 1011.51 1011.09 1009.73 1008.36 1007.21 1006.41 1005.84 1005.21 1004.82 1004.15 1003.71 1003.39 1003.16 1002.77 1001.79 1001.21 1002.48 1004.01 1004.53 1005.47 1005.73 1004.55 1003.74 1003.63 1003.98 1005.04 1006.54 1008.80 1009.99 1010.28 1009.97 1008.97 1008.46 1008.37 1007.61 1007.35 1008.21 1007.52 1005.89 1005.35
1015.73 1013.98 1010.73 1010.55 1011.29 1011.46 1010.35 1009.39 1008.25 1007.18 1006.19 1005.48 1004.80 1003.97 1003.27 1003.29 1003.11 1002.09 1001.16 999.68 1000.89 1001.97 1002.68 1003.92 1005.17 1005.85 1004.82 1003.93 1003.47 1003.58 1004.64 1005.85 1007.06 1008.29 1009.57 1009.87 1008.86 1008.31 1008.24 1007.49 1007.67 1009.93 1006.88 1006.76 1006.29
1016.25 1014.82 1012.34 1011.31 1011.39 1011.08 1010.61 1009.28 1008.13 1006.59 1005.73 1004.91 1004.13 1003.38 1003.07 1002.57 1001.95 1001.23 1000.39 999.46 999.85 1000.51 1001.57 1002.69 1004.95 1005.14 1005.08 1004.29 1003.98 1003.59 1004.21 1005.21 1006.11 1007.83 1008.97 1008.76 1008.27 1008.41 1008.53 1008.42 1008.15 1007.16 1006.58 1006.28 1006.29
1016.47 1015.40 1014.17 1012.86 1012.33 1011.73 1010.74 1009.12 1008.20 1007.15 1005.71 1004.69 1003.76 1003.16 1003.10 1002.34 1001.45 1000.73 999.85 999.61 999.94 1000.32 1001.81 1002.49 1004.33 1004.59 1004.28 1004.33 1003.96 1003.89 1004.05 1004.78 1005.57 1006.07 1006.97 1007.17 1007.83 1007.50 1007.67 1007.37 1006.92 1006.29 1006.00 1006.21 1006.58
1016.59 1015.91 1014.67 1013.71 1012.63 1011.70 1010.47 1009.28 1008.56 1007.70 1006.80 1004.89 1004.05 1002.79 1002.38 1002.17 1000.87 1000.24 999.97 999.69 999.97 1000.61 1001.63 1002.94 1004.18 1004.61 1004.87 1004.13 1003.87 1004.09 1004.07 1004.23 1004.68 1005.51 1006.20 1006.96 1007.54 1007.21 1007.44 1007.26 1006.71 1006.29 1006.05 1006.76 1006.81
1016.15 1015.83 1015.55 1013.97 1012.91 1012.01 1010.88 1010.06 1008.95 1008.03 1005.83 1004.86 1004.03 1003.31 1001.73 999.96 999.68 999.42 999.55 999.56 999.86 1000.73 1002.17 1003.25 1004.32 1005.53 1005.70 1004.60 1003.92 1004.09 1004.20 1004.40 1004.87 1005.39 1005.75 1006.93 1006.57 1007.23 1008.11 1007.86 1007.50 1007.04 1006.90 1006.88 1006.97
Wind_Speed
18 19 19 20 21 20 20 20 20 19 19 20 19 19 19 20 20 1 5 5 7 14 3 4 4 3 7 4 4 3 5 0 1 2 3 8 5 6 5 14 2 4 8 8 17
19 19 20 20 20 21 21 20 21 21 20 19 19 19 17 17 4 6 6 11 13 17 6 6 4 8 3 2 3 4 4 6 6 5 3 3 5 8 6 9 3 10 15 18 18
18 19 20 20 21 22 22 21 21 21 20 19 18 18 17 11 4 8 7 13 15 13 2 4 4 4 4 1 3 3 2 2 6 1 5 1 6 1 14 6 8 17 19 19 18
18 18 18 20 21 22 22 23 22 21 20 19 17 17 19 1 4 2 11 13 14 7 3 2 2 4 5 6 1 4 4 1 7 3 4 2 1 7 14 6 14 16 23 20 18
19 19 20 20 21 23 22 21 20 22 19 17 16 14 5 3 10 2 9 9 8 7 6 3 2 3 4 6 8 2 5 8 7 5 4 5 5 0 12 13 14 15 21 21 18
20 21 21 21 22 22 21 21 20 22 19 15 12 11 0 3 4 2 8 4 4 5 5 5 4 4 5 6 3 4 7 6 5 2 4 5 3 5 5 15 15 17 20 19 19
21 20 20 21 22 22 22 22 22 21 17 12 8 3 1 14 4 4 5 4 3 4 4 4 5 4 3 4 3 8 5 4 3 5 3 4 5 3 10 13 14 12 18 17 18
18 19 20 22 23 23 23 23 24 20 12 7 3 2 8 4 1 8 2 4 5 4 3 5 6 4 4 4 3 4 3 2 3 3 3 5 4 6 9 15 13 10 8 12 15
19 20 21 22 24 25 26 25 22 6 5 5 2 2 11 8 1 7 5 4 2 2 3 3 4 5 4 6 5 3 2 4 2 6 3 2 2 6 10 12 12 12 11 8 8
19 20 22 24 25 26 27 21 7 2 3 4 3 3 6 1 6 2 5 4 0 3 5 4 5 5 4 4 4 4 3 4 4 7 3 3 4 5 9 10 13 12 12 12 11
19 21 23 25 26 27 12 3 6 4 2 6 7 6 6 8 4 2 5 6 3 7 3 3 4 8 13 7 6 5 3 5 3 6 5 7 4 8 9 12 13 12 13 13 13
19 21 23 26 28 16 3 4 2 2 12 11 14 9 5 5 5 5 4 6 5 5 2 7 5 10 7 10 4 2 2 8 2 6 5 6 9 6 15 16 18 16 14 14 11
18 20 22 27 30 2 3 4 2 5 4 10 6 6 6 9 7 7 8 6 6 6 5 7 7 5 4 4 5 2 6 7 5 1 3 3 8 2 5 5 11 14 15 13 13
18 18 19 28 3 6 6 3 6 3 5 9 4 8 6 7 4 8 7 7 2 10 9 5 4 6 4 6 8 6 10 10 9 2 3 3 5 7 6 8 9 14 14 13 11
17 17 13 6 6 5 7 11 10 4 4 1 3 0 3 9 2 2 5 6 8 6 7 9 7 5 4 11 6 13 10 15 11 5 3 2 4 9 4 7 9 14 11 12 15
19 17 12 1 2 10 10 10 3 8 7 5 4 5 5 1 2 5 4 6 5 5 3 6 1 7 11 8 12 1 7 9 5 4 2 6 6 9 5 12 7 7 12 10 13
20 19 11 3 6 2 6 4 7 4 6 6 3 4 2 3 1 2 2 4 6 6 2 5 4 3 3 1 4 7 8 4 4 3 8 3 5 12 7 8 9 12 13 10 13
20 25 5 7 5 2 3 6 2 4 6 5 4 3 6 5 4 2 3 3 2 6 4 6 6 6 4 8 9 7 10 9 7 5 6 2 7 9 7 6 8 7 5 8 10
23 4 4 5 9 3 6 3 7 6 5 8 7 4 2 4 0 3 8 8 9 9 9 6 6 3 4 5 9 4 3 5 9 3 3 4 8 6 8 4 6 9 6 8 9
7 5 5 0 9 4 6 6 5 4 6 5 3 4 2 4 5 6 7 5 6 10 6 5 1 4 3 3 3 6 8 4 5 4 2 6 4 5 6 6 3 6 7 5 6
2 5 4 6 1 6 4 7 5 7 4 4 1 3 8 4 7 4 7 6 8 6 5 6 5 7 4 2 10 2 3 7 7 5 7 3 7 5 6 3 8 6 5 7 10
3 3 4 3 4 1 3 7 3 2 2 8 4 10 5 2 5 8 11 10 9 11 11 7 6 4 13 4 3 5 6 7 8 4 1 4 6 1 4 6 5 11 9 3 5
4 4 5 4 1 2 5 4 4 5 4 3 4 6 5 5 3 8 8 16 10 9 11 9 1 2 12 7 3 4 5 5 6 5 6 6 7 2 7 4 8 16 6 1 6
3 4 5 4 0 3 2 5 4 7 12 7 6 6 3 5 7 6 5 3 10 13 11 11 4 9 9 9 2 2 5 5 6 5 6 6 5 5 4 9 10 6 7 8 7
0 3 1 4 2 3 3 3 5 7 4 4 6 5 3 5 5 6 3 2 4 13 6 8 6 5 6 1 1 3 3 8 6 7 8 8 9 9 9 10 6 3 9 9 8
0 2 5 4 4 4 0 2 2 4 5 6 6 11 9 7 8 6 3 2 4 2 5 1 3 3 6 7 8 7 9 5 3 4 7 7 3 6 2 7 4 6 10 6 7
1 3 1 4 4 2 1 4 6 8 8 12 8 7 9 13 10 6 6 3 8 9 4 4 7 4 1 3 4 9 7 3 4 3 8 11 8 7 1 4 4 2 4 9 8
Wind_Direction
355 352 350 349 348 348 346 344 340 338 336 332 331 328 326 328 319 304 262 213 174 167 93 97 57 7 346 26 118 156 59 86 270 358 313 172 124 166 63 139 167 170 127 132 147
352 350 347 346 345 343 342 341 340 336 333 331 328 327 326 334 330 281 239 155 148 162 127 163 125 155 129 347 339 64 127 221 224 169 155 107 144 129 117 159 77 82 99 131 147
350 348 345 344 343 341 338 337 338 334 329 328 325 324 322 327 339 257 124 158 155 171 195 124 127 151 77 29 231 110 175 209 273 169 61 348 98 179 139 201 174 146 142 152 156
347 345 345 343 340 338 336 334 332 331 325 324 324 323 319 253 207 283 114 144 156 169 141 87 87 109 133 178 103 74 302 191 300 76 4 282 32 120 164 203 161 151 152 157 167
352 349 344 339 335 333 327 323 321 324 322 319 321 325 332 10 252 357 109 137 147 158 162 134 76 133 166 204 107 202 173 270 290 245 278 272 115 259 198 145 132 138 155 166 174
349 348 344 336 330 320 317 313 311 317 314 312 314 320 312 264 259 119 114 142 170 161 128 156 152 188 104 55 105 196 134 215 225 185 282 305 4 106 105 140 139 144 162 171 182
346 335 328 326 324 321 316 309 311 313 308 301 297 291 103 234 100 353 341 197 183 154 137 206 153 76 140 106 129 130 130 215 211 185 233 285 28 39 140 148 155 161 168 182 189
334 331 328 325 323 318 312 312 311 305 292 276 210 197 245 241 1 298 177 273 205 229 210 162 153 96 77 131 38 70 53 45 247 271 324 73 271 120 154 158 173 171 188 177 187
330 329 327 325 323 318 314 314 312 305 178 150 123 109 266 307 221 260 171 220 179 149 215 149 130 111 57 89 12 27 208 223 304 203 146 128 164 158 168 173 181 184 188 203 209
330 329 328 326 323 319 316 306 279 352 177 194 247 8 289 31 281 236 197 168 179 355 26 104 67 91 56 80 219 210 221 251 217 198 235 191 208 173 169 178 196 200 195 196 207
328 328 328 327 326 325 334 27 12 3 48 247 232 245 286 280 286 242 158 95 78 47 159 32 109 167 189 185 204 138 211 273 163 195 127 217 258 226 180 186 199 206 211 207 210
327 327 328 328 325 329 320 67 181 138 298 240 243 249 257 75 304 303 106 125 119 183 96 24 208 230 132 165 180 219 278 280 259 176 157 192 252 213 191 197 194 201 211 212 214
325 327 330 329 324 18 297 231 356 308 248 291 203 220 193 139 205 260 131 141 130 144 167 157 229 197 147 152 142 213 193 274 206 132 334 61 329 152 219 193 192 209 211 210 211
323 326 334 331 31 324 291 294 305 246 35 278 259 263 153 147 260 216 172 135 95 182 147 210 235 178 173 232 137 248 186 228 237 162 210 98 275 286 235 195 191 199 197 198 198
319 321 331 325 288 310 282 329 327 68 350 217 221 76 162 145 237 180 189 60 159 169 115 242 171 157 179 226 139 235 162 205 233 86 27 16 66 269 359 259 206 224 211 197 192
315 314 337 63 241 246 315 308 42 42 259 327 147 162 114 143 304 351 121 68 144 130 354 237 192 152 212 226 176 89 62 36 60 99 0 196 152 282 199 219 234 208 218 185 185
310 305 306 228 236 144 315 27 44 154 324 337 210 152 102 163 263 105 139 141 157 108 275 325 241 258 163 119 31 80 75 17 7 6 223 83 117 244 261 237 213 212 216 189 179
312 308 245 210 227 252 26 50 166 252 264 297 334 52 162 151 253 132 108 227 222 96 121 158 320 181 180 184 190 181 156 150 184 180 245 137 236 258 279 233 227 234 240 155 172
316 320 279 261 184 129 85 88 215 219 302 339 330 96 317 224 211 154 194 212 198 162 163 137 268 287 216 181 139 202 189 183 104 11 76 245 298 325 346 10 342 253 217 184 186
323 331 271 9 155 92 81 228 248 242 343 3 327 26 260 224 162 162 189 213 209 183 158 190 264 221 273 152 51 157 162 73 17 129 230 286 277 238 315 341 16 32 5 344 251
341 348 265 151 158 52 169 226 263 258 331 326 277 315 236 230 198 206 225 249 194 164 123 131 108 281 25 209 191 119 124 46 109 119 162 215 264 201 266 304 321 14 28 79 90
344 345 342 80 56 48 181 198 260 237 217 254 224 200 243 262 250 212 219 218 160 148 167 200 141 218 235 214 224 133 152 130 120 230 169 155 272 126 240 164 84 310 249 100 98
352 275 301 112 166 275 295 289 254 268 256 269 275 234 214 242 242 202 210 237 133 154 165 179 234 19 331 352 346 152 152 117 113 85 183 139 255 49 5 125 228 227 95 34 54
349 342 315 44 119 140 329 276 318 297 287 226 246 232 250 250 231 267 243 231 180 182 120 102 125 155 187 214 196 204 140 160 125 120 171 218 192 201 193 211 219 193 100 74 57
42 260 208 297 284 308 237 272 322 322 263 271 299 225 359 291 297 227 167 138 46 139 100 123 154 168 231 159 232 70 10 172 178 176 150 213 196 192 192 209 216 111 87 77 48
193 356 347 282 296 298 55 274 314 280 259 271 209 289 304 237 218 256 177 130 159 43 108 172 167 130 31 138 112 72 28 47 113 133 74 101 196 213 267 311 288 125 125 116 121
316 323 104 286 323 2 221 333 310 342 259 245 278 305 293 263 212 217 178 193 161 149 130 95 124 96 207 284 355 22 340 340 88 332 143 154 223 126 250 306 324 283 144 142 146